[Date Prev][Date Next][Thread Prev][Thread Next] - [Date Index][Thread Index][Author Index]
2 Line ISS Keps 3-17
- Subject: [sarex] 2 Line ISS Keps 3-17
- From: "Dave Larsen PhD" <doc@xxxxxxxxxxx>
- Date: Thu, 16 Mar 2006 19:26:25 -0800
ISS
1 25544U 98067A 06076.01874413 .00010364 00000-0 74155-4 0 5443
2 25544 051.6446 301.7148 0008820 014.6414 133.3433 15.74386111418639
----
Via the sarex mailing list at AMSAT.ORG courtesy of AMSAT-NA.
To unsubscribe, send "unsubscribe sarex" to Majordomo@amsat.org
AMSAT Home